NEUTRON-1 (46923 NORAD) Tracking and Keplerian Element Data

This shows tracking and keplerian element data for the satellite.

Feedback or suggestion? Click here.




ElementValue
Catalog46923
NameNEUTRON-1
Epoch Orbit1199
Epoch Day21.16532102
Epoch Year2021
RAAN348.9959
Inclination51.6439
Eccentricity9.9E-05
Argument of Perigee264.7276
Mean Anonmoly95.3601
Mean Motion15.5146341
Decay Rate6.933E-05
L11 46923U 98067RT 21021.16532102 .00006933 00000-0 12290-3 0 9998
L22 46923 51.6439 348.9959 0000990 264.7276 95.3601 15.51463410 11997

Live tracking and technical data element details for NEUTRON-1 (NORAD 46923). NEUTRON-1 can be tracked NOW for your location showing map with azimuth and elevation plus other details from your city location.

Track the satellite on the map from your city or location and see movement details for azimuth, elevation, latitude, longitude, range, height, and movement on the map or in text.







IsCatalogInMostPopularTable: catalog: 46923, numindb: 28
Update: records affected: 1



GetName: 46923 NEUTRON-1

Hit Count: updated at: Fri, 22 Jan 2021 19:04:53 GMT